Time,TemperatureF,DewpointF,PressureIn,WindDirection,WindDirectionDegrees,WindSpeedMPH,WindSpeedGustMPH,Humidity,HourlyPrecipIn,Conditions,Clouds,dailyrainin,SoftwareType,DateUTC
2013-05-23 00:01:00,73.1,67.0,29.28,WSW,247,1.0,3.0,82,0.00,,,0.00,Rainwise IP-100,2013-05-23 04:01:00,
2013-05-23 00:06:00,73.2,68.0,29.28,West,270,1.0,2.0,83,0.00,,,0.00,Rainwise IP-100,2013-05-23 04:06:00,
2013-05-23 00:11:00,73.1,67.5,29.28,NW,315,2.0,3.0,83,0.00,,,0.00,Rainwise IP-100,2013-05-23 04:11:00,
2013-05-23 00:16:00,73.0,67.5,29.29,West,270,1.0,4.0,83,0.00,,,0.00,Rainwise IP-100,2013-05-23 04:16:00,
2013-05-23 00:21:00,72.9,68.0,29.29,NW,315,1.0,3.0,84,0.00,,,0.00,Rainwise IP-100,2013-05-23 04:21:00,
2013-05-23 00:26:00,72.9,68.0,29.28,NW,315,1.0,3.0,84,0.00,,,0.00,Rainwise IP-100,2013-05-23 04:26:00,
2013-05-23 00:31:00,72.9,68.0,29.28,SE,135,1.0,2.0,84,0.00,,,0.00,Rainwise IP-100,2013-05-23 04:31:00,
2013-05-23 00:36:00,72.9,68.0,29.28,South,180,2.0,2.0,84,0.00,,,0.00,Rainwise IP-100,2013-05-23 04:36:00,
2013-05-23 00:41:00,72.7,68.0,29.27,SSW,202,2.0,4.0,85,0.00,,,0.00,Rainwise IP-100,2013-05-23 04:41:00,
2013-05-23 00:46:00,72.5,68.0,29.27,West,270,2.0,3.0,85,0.00,,,0.00,Rainwise IP-100,2013-05-23 04:46:00,
2013-05-23 00:51:00,72.3,68.0,29.27,West,270,4.0,5.0,86,0.00,,,0.00,Rainwise IP-100,2013-05-23 04:51:00,
2013-05-23 00:56:00,71.9,68.0,29.28,WSW,247,3.0,4.0,87,0.00,,,0.00,Rainwise IP-100,2013-05-23 04:56:00,
2013-05-23 01:01:00,71.9,68.5,29.27,South,180,1.0,3.0,88,0.00,,,0.00,Rainwise IP-100,2013-05-23 05:01:00,
2013-05-23 01:06:00,71.9,68.5,29.27,SW,225,2.0,4.0,88,0.00,,,0.00,Rainwise IP-100,2013-05-23 05:06:00,
2013-05-23 01:11:00,71.9,68.5,29.27,SW,225,1.0,4.0,88,0.00,,,0.00,Rainwise IP-100,2013-05-23 05:11:00,
2013-05-23 01:16:00,71.9,68.5,29.27,SW,225,3.0,4.0,88,0.00,,,0.00,Rainwise IP-100,2013-05-23 05:16:00,
2013-05-23 01:21:00,71.9,68.5,29.27,SW,225,2.0,5.0,88,0.00,,,0.00,Rainwise IP-100,2013-05-23 05:21:00,
2013-05-23 01:26:00,71.9,68.5,29.28,SW,225,2.0,6.0,88,0.00,,,0.00,Rainwise IP-100,2013-05-23 05:26:00,
2013-05-23 01:31:00,71.9,68.5,29.28,SW,225,4.0,6.0,88,0.00,,,0.00,Rainwise IP-100,2013-05-23 05:31:00,
2013-05-23 01:36:00,71.9,68.5,29.28,WSW,247,3.0,6.0,88,0.00,,,0.00,Rainwise IP-100,2013-05-23 05:36:00,
2013-05-23 01:41:00,71.9,68.5,29.28,WSW,247,3.0,6.0,88,0.00,,,0.00,Rainwise IP-100,2013-05-23 05:41:00,
2013-05-23 01:46:00,71.9,68.5,29.27,WSW,247,2.0,5.0,88,0.00,,,0.00,Rainwise IP-100,2013-05-23 05:46:00,
2013-05-23 01:51:00,71.9,68.5,29.27,SSW,202,2.0,4.0,88,0.00,,,0.00,Rainwise IP-100,2013-05-23 05:51:00,
2013-05-23 01:56:00,71.9,68.5,29.28,West,270,4.0,6.0,88,0.00,,,0.00,Rainwise IP-100,2013-05-23 05:56:00,
2013-05-23 02:01:00,71.1,66.3,29.27,WNW,292,5.0,12.0,86,0.00,,,0.00,Rainwise IP-100,2013-05-23 06:01:00,
2013-05-23 02:06:00,70.3,66.3,29.27,NNW,337,2.0,11.0,86,0.00,,,0.00,Rainwise IP-100,2013-05-23 06:06:00,
2013-05-23 02:11:00,69.3,65.5,29.27,West,270,4.0,11.0,88,0.00,,,0.00,Rainwise IP-100,2013-05-23 06:11:00,
2013-05-23 02:16:00,68.1,65.5,29.26,NW,315,5.0,11.0,91,0.00,,,0.00,Rainwise IP-100,2013-05-23 06:16:00,
2013-05-23 02:21:00,67.5,66.3,29.25,WNW,292,2.0,9.0,95,0.00,,,0.00,Rainwise IP-100,2013-05-23 06:21:00,
2013-05-23 02:26:00,67.2,66.0,29.25,West,270,2.0,3.0,95,0.00,,,0.00,Rainwise IP-100,2013-05-23 06:26:00,
2013-05-23 02:31:00,66.9,66.0,29.24,NW,315,1.0,4.0,96,0.00,,,0.00,Rainwise IP-100,2013-05-23 06:31:00,
2013-05-23 02:36:00,66.9,66.7,29.24,ESE,112,2.0,2.0,99,0.00,,,0.00,Rainwise IP-100,2013-05-23 06:36:00,
2013-05-23 02:41:00,66.6,66.3,29.23,ENE,67,2.0,3.0,98,0.00,,,0.00,Rainwise IP-100,2013-05-23 06:41:00,
2013-05-23 02:46:00,66.4,66.0,29.23,East,90,2.0,3.0,99,0.00,,,0.00,Rainwise IP-100,2013-05-23 06:46:00,
2013-05-23 02:51:00,66.3,66.0,29.23,East,90,1.0,3.0,99,0.00,,,0.00,Rainwise IP-100,2013-05-23 06:51:00,
2013-05-23 02:56:00,66.2,66.0,29.23,East,90,0.0,2.0,99,0.00,,,0.00,Rainwise IP-100,2013-05-23 06:56:00,
2013-05-23 03:01:00,66.1,65.5,29.22,East,90,0.0,2.0,99,0.00,,,0.00,Rainwise IP-100,2013-05-23 07:01:00,
2013-05-23 03:06:00,66.1,65.5,29.22,East,90,1.0,2.0,99,0.00,,,0.00,Rainwise IP-100,2013-05-23 07:06:00,
2013-05-23 03:11:00,66.2,66.0,29.22,ESE,112,2.0,2.0,99,0.00,,,0.00,Rainwise IP-100,2013-05-23 07:11:00,
2013-05-23 03:16:00,66.3,66.0,29.22,SE,135,1.0,2.0,99,0.00,,,0.00,Rainwise IP-100,2013-05-23 07:16:00,
2013-05-23 03:21:00,66.2,66.0,29.22,SE,135,2.0,2.0,99,0.00,,,0.00,Rainwise IP-100,2013-05-23 07:21:00,
2013-05-23 03:26:00,66.3,66.0,29.22,SE,135,2.0,2.0,99,0.00,,,0.00,Rainwise IP-100,2013-05-23 07:26:00,
2013-05-23 03:31:00,66.2,66.0,29.23,SE,135,1.0,2.0,99,0.00,,,0.00,Rainwise IP-100,2013-05-23 07:31:00,
2013-05-23 03:36:00,66.1,65.5,29.22,SE,135,0.0,2.0,99,0.00,,,0.00,Rainwise IP-100,2013-05-23 07:36:00,
2013-05-23 03:41:00,66.1,65.5,29.22,SE,135,1.0,2.0,99,0.00,,,0.00,Rainwise IP-100,2013-05-23 07:41:00,
2013-05-23 03:43:00,66.1,65.5,29.22,SE,135,1.0,2.0,99,0.00,,,0.00,Rainwise IP-100,2013-05-23 07:43:00,
2013-05-23 03:48:00,66.0,65.5,29.22,SE,135,1.0,2.0,99,0.00,,,0.00,Rainwise IP-100,2013-05-23 07:48:00,
2013-05-23 03:51:00,66.2,66.0,29.23,SE,135,1.0,2.0,99,0.00,,,0.00,Rainwise IP-100,2013-05-23 07:51:00,
2013-05-23 03:56:00,66.0,65.5,29.22,ESE,112,2.0,2.0,99,0.00,,,0.00,Rainwise IP-100,2013-05-23 07:56:00,
2013-05-23 04:01:00,65.9,65.5,29.22,ESE,112,0.0,2.0,98,0.00,,,0.00,Rainwise IP-100,2013-05-23 08:01:00,
2013-05-23 04:06:00,66.1,65.5,29.22,ESE,112,1.0,2.0,99,0.00,,,0.00,Rainwise IP-100,2013-05-23 08:06:00,
2013-05-23 04:11:00,66.2,66.0,29.23,ESE,112,0.0,2.0,99,0.00,,,0.00,Rainwise IP-100,2013-05-23 08:11:00,
2013-05-23 04:16:00,66.2,66.0,29.23,ESE,112,1.0,2.0,99,0.00,,,0.00,Rainwise IP-100,2013-05-23 08:16:00,
2013-05-23 04:21:00,66.2,66.0,29.23,ESE,112,2.0,2.0,99,0.00,,,0.00,Rainwise IP-100,2013-05-23 08:21:00,
2013-05-23 04:26:00,66.3,66.0,29.22,SE,135,2.0,2.0,99,0.00,,,0.00,Rainwise IP-100,2013-05-23 08:26:00,
2013-05-23 04:31:00,66.3,66.0,29.23,ESE,112,1.0,3.0,99,0.00,,,0.00,Rainwise IP-100,2013-05-23 08:31:00,
2013-05-23 04:36:00,66.4,66.0,29.22,SE,135,4.0,5.0,99,0.00,,,0.00,Rainwise IP-100,2013-05-23 08:36:00,
2013-05-23 04:41:00,66.3,66.0,29.22,SE,135,1.0,4.0,99,0.00,,,0.00,Rainwise IP-100,2013-05-23 08:41:00,
2013-05-23 04:46:00,66.1,65.5,29.22,SE,135,0.0,2.0,99,0.00,,,0.00,Rainwise IP-100,2013-05-23 08:46:00,
2013-05-23 04:51:00,65.9,65.5,29.22,SE,135,2.0,2.0,98,0.00,,,0.00,Rainwise IP-100,2013-05-23 08:51:00,
2013-05-23 04:56:00,65.9,65.5,29.22,SE,135,2.0,2.0,98,0.00,,,0.00,Rainwise IP-100,2013-05-23 08:56:00,
2013-05-23 05:01:00,65.9,65.5,29.22,SE,135,1.0,2.0,98,0.00,,,0.00,Rainwise IP-100,2013-05-23 09:01:00,
2013-05-23 05:06:00,65.9,65.5,29.22,SE,135,2.0,4.0,98,0.00,,,0.00,Rainwise IP-100,2013-05-23 09:06:00,
2013-05-23 05:11:00,65.9,65.5,29.22,SE,135,1.0,3.0,98,0.00,,,0.00,Rainwise IP-100,2013-05-23 09:11:00,
2013-05-23 05:16:00,65.9,65.5,29.22,ESE,112,2.0,2.0,98,0.00,,,0.00,Rainwise IP-100,2013-05-23 09:16:00,
2013-05-23 05:21:00,65.9,65.5,29.22,ESE,112,2.0,4.0,98,0.00,,,0.00,Rainwise IP-100,2013-05-23 09:21:00,
2013-05-23 05:26:00,65.8,65.5,29.22,ESE,112,0.0,2.0,98,0.00,,,0.00,Rainwise IP-100,2013-05-23 09:26:00,
2013-05-23 05:31:00,65.9,65.5,29.22,North,360,2.0,0.0,98,0.00,,,0.00,Rainwise IP-100,2013-05-23 09:31:00,
2013-05-23 05:36:00,65.9,65.5,29.22,NW,315,2.0,2.0,98,0.00,,,0.00,Rainwise IP-100,2013-05-23 09:36:00,
2013-05-23 05:41:00,65.9,65.5,29.22,NW,315,2.0,2.0,98,0.00,,,0.00,Rainwise IP-100,2013-05-23 09:41:00,
2013-05-23 05:46:00,65.9,65.5,29.22,NW,315,1.0,2.0,98,0.00,,,0.00,Rainwise IP-100,2013-05-23 09:46:00,
2013-05-23 05:51:00,65.9,65.5,29.22,NW,315,1.0,2.0,98,0.00,,,0.00,Rainwise IP-100,2013-05-23 09:51:00,
2013-05-23 05:56:00,65.9,65.5,29.22,WNW,292,2.0,4.0,98,0.00,,,0.00,Rainwise IP-100,2013-05-23 09:56:00,
2013-05-23 06:01:00,65.8,65.5,29.23,WNW,292,0.0,5.0,98,0.00,,,0.00,Rainwise IP-100,2013-05-23 10:01:00,
2013-05-23 06:06:00,65.8,65.5,29.22,SW,225,2.0,2.0,98,0.00,,,0.00,Rainwise IP-100,2013-05-23 10:06:00,
2013-05-23 06:11:00,65.7,65.0,29.22,SSW,202,2.0,2.0,98,0.00,,,0.00,Rainwise IP-100,2013-05-23 10:11:00,
2013-05-23 06:16:00,65.7,65.0,29.22,SSW,202,0.0,2.0,98,0.00,,,0.00,Rainwise IP-100,2013-05-23 10:16:00,
2013-05-23 06:21:00,65.8,65.5,29.22,SSW,202,1.0,1.0,98,0.00,,,0.00,Rainwise IP-100,2013-05-23 10:21:00,
2013-05-23 06:26:00,65.8,65.5,29.22,South,180,1.0,2.0,98,0.00,,,0.00,Rainwise IP-100,2013-05-23 10:26:00,
2013-05-23 06:31:00,65.9,65.5,29.22,SW,225,1.0,3.0,98,0.00,,,0.00,Rainwise IP-100,2013-05-23 10:31:00,
2013-05-23 06:36:00,66.0,65.5,29.22,SSE,157,2.0,2.0,99,0.00,,,0.00,Rainwise IP-100,2013-05-23 10:36:00,
2013-05-23 06:41:00,66.0,65.5,29.22,SSE,157,1.0,2.0,99,0.00,,,0.00,Rainwise IP-100,2013-05-23 10:41:00,
2013-05-23 06:46:00,66.1,65.5,29.22,SW,225,2.0,2.0,99,0.00,,,0.00,Rainwise IP-100,2013-05-23 10:46:00,
2013-05-23 06:51:00,66.1,65.5,29.22,West,270,0.0,2.0,99,0.00,,,0.00,Rainwise IP-100,2013-05-23 10:51:00,
2013-05-23 06:56:00,66.1,65.5,29.22,West,270,0.0,1.0,99,0.00,,,0.00,Rainwise IP-100,2013-05-23 10:56:00,
2013-05-23 07:01:00,66.0,65.5,29.22,West,270,0.0,0.0,99,0.00,,,0.00,Rainwise IP-100,2013-05-23 11:01:00,
2013-05-23 07:06:00,66.0,65.5,29.22,West,270,0.0,0.0,99,0.00,,,0.00,Rainwise IP-100,2013-05-23 11:06:00,
2013-05-23 07:11:00,66.0,65.5,29.21,West,270,0.0,0.0,99,0.00,,,0.00,Rainwise IP-100,2013-05-23 11:11:00,
2013-05-23 07:16:00,66.1,65.5,29.21,West,270,0.0,0.0,99,0.00,,,0.00,Rainwise IP-100,2013-05-23 11:16:00,
2013-05-23 07:21:00,66.1,65.5,29.21,ESE,112,1.0,2.0,99,0.00,,,0.00,Rainwise IP-100,2013-05-23 11:21:00,
2013-05-23 07:26:00,66.1,65.5,29.21,ESE,112,2.0,2.0,99,0.00,,,0.00,Rainwise IP-100,2013-05-23 11:26:00,
2013-05-23 07:31:00,66.0,65.5,29.21,ESE,112,1.0,2.0,99,0.00,,,0.00,Rainwise IP-100,2013-05-23 11:31:00,
2013-05-23 07:36:00,66.1,65.5,29.21,ESE,112,0.0,2.0,99,0.00,,,0.00,Rainwise IP-100,2013-05-23 11:36:00,
2013-05-23 07:41:00,66.4,66.0,29.22,ESE,112,0.0,2.0,99,0.00,,,0.00,Rainwise IP-100,2013-05-23 11:41:00,
2013-05-23 07:46:00,66.9,66.7,29.23,ESE,112,1.0,2.0,99,0.00,,,0.00,Rainwise IP-100,2013-05-23 11:46:00,
2013-05-23 07:51:00,67.0,66.7,29.23,ESE,112,2.0,3.0,99,0.00,,,0.00,Rainwise IP-100,2013-05-23 11:51:00,
2013-05-23 07:56:00,67.2,66.7,29.23,East,90,2.0,2.0,99,0.00,,,0.00,Rainwise IP-100,2013-05-23 11:56:00,
2013-05-23 08:01:00,67.8,67.5,29.23,East,90,2.0,2.0,99,0.00,,,0.00,Rainwise IP-100,2013-05-23 12:01:00,
2013-05-23 08:06:00,67.9,67.5,29.24,East,90,2.0,2.0,99,0.00,,,0.00,Rainwise IP-100,2013-05-23 12:06:00,
2013-05-23 08:11:00,67.9,67.5,29.24,East,90,2.0,3.0,99,0.00,,,0.00,Rainwise IP-100,2013-05-23 12:11:00,
2013-05-23 08:16:00,67.9,67.5,29.23,ENE,67,2.0,3.0,99,0.00,,,0.00,Rainwise IP-100,2013-05-23 12:16:00,
2013-05-23 08:21:00,68.1,67.5,29.23,ESE,112,1.0,3.0,99,0.00,,,0.00,Rainwise IP-100,2013-05-23 12:21:00,
2013-05-23 08:26:00,68.8,68.5,29.24,SE,135,2.0,2.0,99,0.00,,,0.00,Rainwise IP-100,2013-05-23 12:26:00,
2013-05-23 08:31:00,69.1,68.5,29.24,ESE,112,1.0,2.0,98,0.00,,,0.00,Rainwise IP-100,2013-05-23 12:31:00,
2013-05-23 08:36:00,69.8,68.0,29.25,ESE,112,0.0,3.0,95,0.00,,,0.00,Rainwise IP-100,2013-05-23 12:36:00,
2013-05-23 08:41:00,70.3,68.5,29.27,East,90,3.0,3.0,93,0.00,,,0.00,Rainwise IP-100,2013-05-23 12:41:00,
2013-05-23 08:46:00,71.1,67.5,29.27,SE,135,2.0,3.0,89,0.00,,,0.00,Rainwise IP-100,2013-05-23 12:46:00,
2013-05-23 08:51:00,71.2,68.0,29.27,SE,135,2.0,2.0,89,0.00,,,0.00,Rainwise IP-100,2013-05-23 12:51:00,
2013-05-23 08:56:00,71.8,67.5,29.28,ENE,67,2.0,2.0,87,0.00,,,0.00,Rainwise IP-100,2013-05-23 12:56:00,
2013-05-23 09:01:00,73.6,69.0,29.30,North,360,2.0,2.0,84,0.00,,,0.00,Rainwise IP-100,2013-05-23 13:01:00,
2013-05-23 09:06:00,73.7,66.7,29.30,NNW,337,0.0,2.0,79,0.00,,,0.00,Rainwise IP-100,2013-05-23 13:06:00,
2013-05-23 09:13:00,73.6,67.0,29.29,ENE,67,2.0,2.0,80,0.00,,,0.00,Rainwise IP-100,2013-05-23 13:13:00,
2013-05-23 09:18:00,72.8,66.7,29.29,ENE,67,1.0,2.0,82,0.00,,,0.00,Rainwise IP-100,2013-05-23 13:18:00,
2013-05-23 09:23:00,73.0,67.0,29.29,ENE,67,1.0,2.0,82,0.00,,,0.00,Rainwise IP-100,2013-05-23 13:23:00,
2013-05-23 09:28:00,72.9,67.0,29.29,East,90,0.0,1.0,82,0.00,,,0.00,Rainwise IP-100,2013-05-23 13:28:00,
2013-05-23 09:35:00,74.2,68.5,29.30,North,360,1.0,0.0,81,0.00,,,0.00,Rainwise IP-100,2013-05-23 13:35:00,
2013-05-23 09:40:00,74.9,68.0,29.31,NNW,337,2.0,2.0,78,0.00,,,0.00,Rainwise IP-100,2013-05-23 13:40:00,
2013-05-23 09:45:00,75.2,68.5,29.32,NW,315,2.0,2.0,79,0.00,,,0.00,Rainwise IP-100,2013-05-23 13:45:00,
2013-05-23 09:50:00,74.2,66.7,29.32,WSW,247,2.0,4.0,77,0.00,,,0.00,Rainwise IP-100,2013-05-23 13:50:00,
2013-05-23 09:55:00,73.6,67.0,29.32,SW,225,1.0,6.0,80,0.00,,,0.00,Rainwise IP-100,2013-05-23 13:55:00,
2013-05-23 10:00:00,73.1,66.7,29.32,WSW,247,4.0,4.0,81,0.00,,,0.00,Rainwise IP-100,2013-05-23 14:00:00,
2013-05-23 10:05:00,72.8,66.7,29.31,WSW,247,1.0,5.0,82,0.00,,,0.00,Rainwise IP-100,2013-05-23 14:05:00,
2013-05-23 10:10:00,72.6,67.5,29.30,West,270,2.0,4.0,84,0.00,,,0.00,Rainwise IP-100,2013-05-23 14:10:00,
2013-05-23 10:15:00,72.4,67.0,29.30,WNW,292,3.0,4.0,84,0.00,,,0.00,Rainwise IP-100,2013-05-23 14:15:00,
2013-05-23 10:20:00,72.3,67.5,29.29,WNW,292,2.0,6.0,85,0.00,,,0.00,Rainwise IP-100,2013-05-23 14:20:00,
2013-05-23 10:25:00,72.5,68.5,29.29,WSW,247,5.0,8.0,86,0.00,,,0.00,Rainwise IP-100,2013-05-23 14:25:00,
2013-05-23 10:30:00,72.9,67.5,29.29,NW,315,2.0,7.0,83,0.00,,,0.00,Rainwise IP-100,2013-05-23 14:30:00,
2013-05-23 10:35:00,72.9,66.7,29.29,NW,315,2.0,6.0,81,0.00,,,0.00,Rainwise IP-100,2013-05-23 14:35:00,
2013-05-23 10:40:00,73.1,67.0,29.30,NW,315,2.0,6.0,82,0.00,,,0.00,Rainwise IP-100,2013-05-23 14:40:00,
2013-05-23 10:45:00,73.2,66.7,29.30,NW,315,3.0,7.0,80,0.00,,,0.00,Rainwise IP-100,2013-05-23 14:45:00,
2013-05-23 10:50:00,73.3,67.0,29.30,NNW,337,2.0,4.0,81,0.00,,,0.00,Rainwise IP-100,2013-05-23 14:50:00,
2013-05-23 10:55:00,73.7,67.5,29.31,West,270,3.0,3.0,81,0.00,,,0.00,Rainwise IP-100,2013-05-23 14:55:00,
2013-05-23 11:00:00,73.7,68.0,29.31,NW,315,2.0,6.0,82,0.00,,,0.00,Rainwise IP-100,2013-05-23 15:00:00,
2013-05-23 11:05:00,73.6,67.0,29.31,West,270,9.0,9.0,80,0.00,,,0.00,Rainwise IP-100,2013-05-23 15:05:00,
2013-05-23 11:10:00,73.6,67.5,29.31,WSW,247,3.0,9.0,81,0.00,,,0.00,Rainwise IP-100,2013-05-23 15:10:00,
2013-05-23 11:16:00,73.5,68.5,29.30,NW,315,4.0,7.0,83,0.00,,,0.00,Rainwise IP-100,2013-05-23 15:16:00,
2013-05-23 11:21:00,73.7,68.5,29.31,WSW,247,4.0,7.0,83,0.00,,,0.00,Rainwise IP-100,2013-05-23 15:21:00,
2013-05-23 11:26:00,74.1,68.0,29.31,NW,315,2.0,8.0,81,0.00,,,0.00,Rainwise IP-100,2013-05-23 15:26:00,
2013-05-23 11:31:00,73.9,68.0,29.31,WNW,292,2.0,7.0,81,0.00,,,0.00,Rainwise IP-100,2013-05-23 15:31:00,
2013-05-23 11:36:00,74.1,67.0,29.31,WSW,247,2.0,6.0,79,0.00,,,0.00,Rainwise IP-100,2013-05-23 15:36:00,
2013-05-23 11:41:00,73.9,68.0,29.31,WNW,292,5.0,5.0,81,0.00,,,0.00,Rainwise IP-100,2013-05-23 15:41:00,
2013-05-23 11:46:00,73.4,67.0,29.31,WNW,292,7.0,8.0,81,0.00,,,0.00,Rainwise IP-100,2013-05-23 15:46:00,
2013-05-23 11:51:00,73.3,67.0,29.31,West,270,2.0,7.0,81,0.00,,,0.00,Rainwise IP-100,2013-05-23 15:51:00,
2013-05-23 11:56:00,73.2,68.0,29.30,NW,315,4.0,5.0,83,0.00,,,0.00,Rainwise IP-100,2013-05-23 15:56:00,
2013-05-23 12:01:00,72.9,67.5,29.30,WNW,292,6.0,8.0,83,0.00,,,0.00,Rainwise IP-100,2013-05-23 16:01:00,
2013-05-23 12:06:00,72.8,67.0,29.29,WNW,292,4.0,8.0,83,0.00,,,0.00,Rainwise IP-100,2013-05-23 16:06:00,
2013-05-23 12:11:00,72.8,68.0,29.29,NW,315,4.0,4.0,85,0.00,,,0.00,Rainwise IP-100,2013-05-23 16:11:00,
2013-05-23 12:16:00,72.6,68.0,29.29,WNW,292,4.0,4.0,85,0.00,,,0.00,Rainwise IP-100,2013-05-23 16:16:00,
2013-05-23 12:21:00,72.7,68.0,29.29,North,360,0.0,5.0,85,0.00,,,0.00,Rainwise IP-100,2013-05-23 16:21:00,
2013-05-23 12:26:00,72.7,68.0,29.28,West,270,3.0,3.0,85,0.00,,,0.00,Rainwise IP-100,2013-05-23 16:26:00,
2013-05-23 12:31:00,72.9,67.0,29.28,West,270,2.0,4.0,82,0.00,,,0.00,Rainwise IP-100,2013-05-23 16:31:00,
2013-05-23 12:36:00,72.9,66.7,29.28,West,270,4.0,6.0,80,0.00,,,0.00,Rainwise IP-100,2013-05-23 16:36:00,
2013-05-23 12:41:00,72.7,67.0,29.28,West,270,4.0,6.0,83,0.00,,,0.00,Rainwise IP-100,2013-05-23 16:41:00,
2013-05-23 12:46:00,72.6,67.5,29.28,WNW,292,5.0,7.0,84,0.00,,,0.00,Rainwise IP-100,2013-05-23 16:46:00,
2013-05-23 12:51:00,72.7,66.7,29.27,West,270,3.0,5.0,82,0.00,,,0.00,Rainwise IP-100,2013-05-23 16:51:00,
2013-05-23 12:56:00,72.9,66.7,29.27,WNW,292,2.0,5.0,81,0.00,,,0.00,Rainwise IP-100,2013-05-23 16:56:00,
2013-05-23 13:01:00,74.8,67.0,29.27,NNW,337,4.0,7.0,77,0.00,,,0.00,Rainwise IP-100,2013-05-23 17:01:00,
2013-05-23 13:06:00,75.9,66.7,29.28,North,360,4.0,7.0,73,0.00,,,0.00,Rainwise IP-100,2013-05-23 17:06:00,
2013-05-23 13:11:00,76.9,66.3,29.29,NNE,22,2.0,4.0,69,0.00,,,0.00,Rainwise IP-100,2013-05-23 17:11:00,
2013-05-23 13:16:00,77.1,67.5,29.30,WNW,292,4.0,5.0,72,0.00,,,0.00,Rainwise IP-100,2013-05-23 17:16:00,
2013-05-23 13:21:00,76.3,67.5,29.31,West,270,2.0,8.0,75,0.00,,,0.00,Rainwise IP-100,2013-05-23 17:21:00,
2013-05-23 13:26:00,76.5,66.7,29.31,NW,315,0.0,4.0,72,0.00,,,0.00,Rainwise IP-100,2013-05-23 17:26:00,
2013-05-23 13:31:00,77.1,67.0,29.31,West,270,1.0,4.0,71,0.00,,,0.00,Rainwise IP-100,2013-05-23 17:31:00,
2013-05-23 13:36:00,77.3,67.0,29.31,North,360,2.0,4.0,71,0.00,,,0.00,Rainwise IP-100,2013-05-23 17:36:00,
2013-05-23 13:41:00,76.5,66.7,29.31,SW,225,5.0,9.0,72,0.00,,,0.00,Rainwise IP-100,2013-05-23 17:41:00,
2013-05-23 13:46:00,76.5,67.0,29.31,WSW,247,3.0,6.0,73,0.00,,,0.00,Rainwise IP-100,2013-05-23 17:46:00,
2013-05-23 13:51:00,77.1,67.5,29.31,NW,315,3.0,7.0,72,0.00,,,0.00,Rainwise IP-100,2013-05-23 17:51:00,
2013-05-23 13:56:00,76.8,66.7,29.31,NW,315,5.0,10.0,71,0.00,,,0.00,Rainwise IP-100,2013-05-23 17:56:00,
2013-05-23 14:01:00,76.7,66.3,29.31,NW,315,2.0,6.0,70,0.00,,,0.00,Rainwise IP-100,2013-05-23 18:01:00,
2013-05-23 14:06:00,76.5,66.0,29.30,West,270,2.0,5.0,70,0.00,,,0.00,Rainwise IP-100,2013-05-23 18:06:00,
2013-05-23 14:11:00,77.0,67.0,29.30,West,270,1.0,4.0,71,0.00,,,0.00,Rainwise IP-100,2013-05-23 18:11:00,
2013-05-23 14:16:00,77.9,67.5,29.30,NW,315,4.0,5.0,70,0.00,,,0.00,Rainwise IP-100,2013-05-23 18:16:00,
2013-05-23 14:21:00,78.1,68.0,29.30,WNW,292,3.0,4.0,71,0.00,,,0.00,Rainwise IP-100,2013-05-23 18:21:00,
2013-05-23 14:26:00,78.2,68.0,29.30,WNW,292,3.0,7.0,70,0.00,,,0.00,Rainwise IP-100,2013-05-23 18:26:00,
2013-05-23 14:31:00,78.3,67.5,29.30,WSW,247,3.0,6.0,69,0.00,,,0.00,Rainwise IP-100,2013-05-23 18:31:00,
2013-05-23 14:36:00,79.3,67.5,29.30,North,360,3.0,3.0,67,0.00,,,0.00,Rainwise IP-100,2013-05-23 18:36:00,
2013-05-23 14:41:00,80.3,67.0,29.30,West,270,2.0,3.0,64,0.00,,,0.00,Rainwise IP-100,2013-05-23 18:41:00,
2013-05-23 14:46:00,79.6,67.0,29.30,NW,315,1.0,6.0,66,0.00,,,0.00,Rainwise IP-100,2013-05-23 18:46:00,
2013-05-23 14:53:00,79.2,68.0,29.29,NNW,337,2.0,4.0,68,0.00,,,0.00,Rainwise IP-100,2013-05-23 18:53:00,
2013-05-23 14:58:00,78.8,67.0,29.29,SW,225,2.0,4.0,68,0.00,,,0.00,Rainwise IP-100,2013-05-23 18:58:00,
2013-05-23 15:03:00,78.3,67.0,29.29,SW,225,2.0,6.0,68,0.00,,,0.00,Rainwise IP-100,2013-05-23 19:03:00,
2013-05-23 15:08:00,78.5,67.0,29.29,East,90,1.0,4.0,68,0.00,,,0.00,Rainwise IP-100,2013-05-23 19:08:00,
2013-05-23 15:13:00,78.6,66.3,29.28,WNW,292,1.0,9.0,66,0.00,,,0.00,Rainwise IP-100,2013-05-23 19:13:00,
2013-05-23 15:18:00,79.2,67.0,29.28,NW,315,2.0,6.0,66,0.00,,,0.00,Rainwise IP-100,2013-05-23 19:18:00,
2013-05-23 15:23:00,78.9,66.7,29.29,WNW,292,2.0,5.0,66,0.00,,,0.00,Rainwise IP-100,2013-05-23 19:23:00,
2013-05-23 15:28:00,78.7,66.7,29.28,SSW,202,2.0,3.0,67,0.00,,,0.00,Rainwise IP-100,2013-05-23 19:28:00,
2013-05-23 15:33:00,79.4,66.7,29.28,WSW,247,4.0,4.0,65,0.00,,,0.00,Rainwise IP-100,2013-05-23 19:33:00,
2013-05-23 15:38:00,79.5,66.7,29.28,SW,225,2.0,6.0,65,0.00,,,0.00,Rainwise IP-100,2013-05-23 19:38:00,
2013-05-23 15:43:00,80.9,66.7,29.29,NW,315,5.0,5.0,62,0.00,,,0.00,Rainwise IP-100,2013-05-23 19:43:00,
2013-05-23 15:48:00,80.8,67.5,29.29,North,360,6.0,6.0,64,0.00,,,0.00,Rainwise IP-100,2013-05-23 19:48:00,
2013-05-23 15:53:00,81.5,68.0,29.29,NW,315,2.0,6.0,63,0.00,,,0.00,Rainwise IP-100,2013-05-23 19:53:00,
2013-05-23 15:58:00,80.7,67.5,29.29,West,270,5.0,9.0,64,0.00,,,0.00,Rainwise IP-100,2013-05-23 19:58:00,
2013-05-23 16:03:00,80.1,66.7,29.29,SW,225,2.0,8.0,64,0.00,,,0.00,Rainwise IP-100,2013-05-23 20:03:00,
2013-05-23 16:08:00,80.0,65.5,29.29,West,270,6.0,8.0,61,0.00,,,0.00,Rainwise IP-100,2013-05-23 20:08:00,
2013-05-23 16:13:00,79.9,66.3,29.29,South,180,2.0,7.0,63,0.00,,,0.00,Rainwise IP-100,2013-05-23 20:13:00,
2013-05-23 16:18:00,79.5,66.7,29.28,WSW,247,6.0,7.0,65,0.00,,,0.00,Rainwise IP-100,2013-05-23 20:18:00,
2013-05-23 16:23:00,79.5,66.7,29.27,West,270,6.0,9.0,65,0.00,,,0.00,Rainwise IP-100,2013-05-23 20:23:00,
2013-05-23 16:28:00,79.9,66.7,29.27,WSW,247,4.0,7.0,64,0.00,,,0.00,Rainwise IP-100,2013-05-23 20:28:00,
2013-05-23 16:33:00,80.6,67.0,29.27,WNW,292,4.0,6.0,64,0.00,,,0.00,Rainwise IP-100,2013-05-23 20:33:00,
2013-05-23 16:38:00,80.7,67.0,29.28,WNW,292,5.0,8.0,63,0.00,,,0.00,Rainwise IP-100,2013-05-23 20:38:00,
2013-05-23 16:43:00,80.4,67.0,29.28,West,270,3.0,7.0,64,0.00,,,0.00,Rainwise IP-100,2013-05-23 20:43:00,
2013-05-23 16:48:00,81.4,67.5,29.27,West,270,4.0,7.0,63,0.00,,,0.00,Rainwise IP-100,2013-05-23 20:48:00,
2013-05-23 16:53:00,81.3,66.3,29.28,WNW,292,6.0,10.0,60,0.00,,,0.00,Rainwise IP-100,2013-05-23 20:53:00,
2013-05-23 16:58:00,80.9,66.3,29.27,NW,315,4.0,9.0,61,0.00,,,0.00,Rainwise IP-100,2013-05-23 20:58:00,
2013-05-23 17:03:00,80.6,66.7,29.27,SSW,202,2.0,8.0,63,0.00,,,0.00,Rainwise IP-100,2013-05-23 21:03:00,
2013-05-23 17:08:00,81.4,66.7,29.27,WNW,292,4.0,5.0,61,0.00,,,0.00,Rainwise IP-100,2013-05-23 21:08:00,
2013-05-23 17:13:00,81.4,66.3,29.27,NW,315,2.0,9.0,60,0.00,,,0.00,Rainwise IP-100,2013-05-23 21:13:00,
2013-05-23 17:18:00,81.3,66.3,29.27,WNW,292,5.0,7.0,60,0.00,,,0.00,Rainwise IP-100,2013-05-23 21:18:00,
2013-05-23 17:23:00,80.6,66.0,29.27,WSW,247,2.0,9.0,61,0.00,,,0.00,Rainwise IP-100,2013-05-23 21:23:00,
2013-05-23 17:28:00,80.4,66.0,29.26,West,270,1.0,6.0,61,0.00,,,0.00,Rainwise IP-100,2013-05-23 21:28:00,
2013-05-23 17:33:00,80.6,66.3,29.26,WNW,292,2.0,6.0,62,0.00,,,0.00,Rainwise IP-100,2013-05-23 21:33:00,
2013-05-23 17:38:00,80.5,66.3,29.26,West,270,6.0,6.0,62,0.00,,,0.00,Rainwise IP-100,2013-05-23 21:38:00,
2013-05-23 17:43:00,80.6,65.5,29.26,WSW,247,4.0,9.0,60,0.00,,,0.00,Rainwise IP-100,2013-05-23 21:43:00,
2013-05-23 17:48:00,80.9,66.3,29.26,West,270,2.0,10.0,61,0.00,,,0.00,Rainwise IP-100,2013-05-23 21:48:00,
2013-05-23 17:53:00,81.2,66.7,29.26,SW,225,4.0,6.0,61,0.00,,,0.00,Rainwise IP-100,2013-05-23 21:53:00,
2013-05-23 17:58:00,80.2,66.0,29.27,WNW,292,8.0,8.0,62,0.00,,,0.00,Rainwise IP-100,2013-05-23 21:58:00,
2013-05-23 18:03:00,79.9,66.0,29.26,WSW,247,9.0,9.0,62,0.00,,,0.00,Rainwise IP-100,2013-05-23 22:03:00,
2013-05-23 18:08:00,80.2,66.0,29.25,West,270,2.0,9.0,62,0.00,,,0.00,Rainwise IP-100,2013-05-23 22:08:00,
2013-05-23 18:13:00,79.8,65.5,29.25,West,270,8.0,9.0,62,0.00,,,0.00,Rainwise IP-100,2013-05-23 22:13:00,
2013-05-23 18:18:00,79.7,66.3,29.25,WSW,247,2.0,8.0,64,0.00,,,0.00,Rainwise IP-100,2013-05-23 22:18:00,
2013-05-23 18:23:00,79.2,66.3,29.24,West,270,6.0,8.0,64,0.00,,,0.00,Rainwise IP-100,2013-05-23 22:23:00,
2013-05-23 18:28:00,79.1,66.3,29.23,West,270,4.0,6.0,65,0.00,,,0.00,Rainwise IP-100,2013-05-23 22:28:00,
2013-05-23 18:33:00,79.0,66.3,29.23,NW,315,2.0,6.0,65,0.00,,,0.00,Rainwise IP-100,2013-05-23 22:33:00,
2013-05-23 18:38:00,78.9,66.3,29.23,West,270,2.0,6.0,65,0.00,,,0.00,Rainwise IP-100,2013-05-23 22:38:00,
2013-05-23 18:43:00,78.9,66.3,29.22,West,270,2.0,5.0,65,0.00,,,0.00,Rainwise IP-100,2013-05-23 22:43:00,
2013-05-23 18:48:00,78.8,66.7,29.22,West,270,7.0,14.0,67,0.00,,,0.00,Rainwise IP-100,2013-05-23 22:48:00,
2013-05-23 18:53:00,77.7,67.5,29.21,West,270,6.0,11.0,71,0.00,,,0.00,Rainwise IP-100,2013-05-23 22:53:00,
2013-05-23 18:58:00,77.3,67.0,29.21,NW,315,4.0,7.0,71,0.00,,,0.00,Rainwise IP-100,2013-05-23 22:58:00,
2013-05-23 19:03:00,77.2,67.5,29.21,West,270,3.0,5.0,72,0.00,,,0.00,Rainwise IP-100,2013-05-23 23:03:00,
2013-05-23 19:08:00,76.9,66.7,29.21,West,270,3.0,8.0,70,0.00,,,0.00,Rainwise IP-100,2013-05-23 23:08:00,
2013-05-23 19:13:00,76.9,67.0,29.20,WNW,292,2.0,3.0,71,0.00,,,0.00,Rainwise IP-100,2013-05-23 23:13:00,
2013-05-23 19:18:00,76.8,66.7,29.20,NW,315,3.0,4.0,71,0.00,,,0.00,Rainwise IP-100,2013-05-23 23:18:00,
2013-05-23 19:23:00,76.5,66.0,29.19,WNW,292,3.0,4.0,70,0.00,,,0.00,Rainwise IP-100,2013-05-23 23:23:00,
2013-05-23 19:28:00,76.8,65.0,29.19,WNW,292,2.0,4.0,67,0.00,,,0.00,Rainwise IP-100,2013-05-23 23:28:00,
2013-05-23 19:33:00,77.1,66.3,29.20,West,270,1.0,4.0,69,0.00,,,0.00,Rainwise IP-100,2013-05-23 23:33:00,
2013-05-23 19:38:00,77.4,65.5,29.20,WNW,292,1.0,2.0,66,0.00,,,0.00,Rainwise IP-100,2013-05-23 23:38:00,
2013-05-23 19:43:00,77.6,65.0,29.21,West,270,0.0,3.0,65,0.00,,,0.00,Rainwise IP-100,2013-05-23 23:43:00,
2013-05-23 19:48:00,77.7,65.0,29.21,West,270,1.0,4.0,65,0.00,,,0.00,Rainwise IP-100,2013-05-23 23:48:00,
2013-05-23 19:53:00,77.2,66.0,29.22,WNW,292,2.0,6.0,67,0.00,,,0.00,Rainwise IP-100,2013-05-23 23:53:00,
2013-05-23 19:58:00,76.8,65.0,29.22,NW,315,1.0,4.0,67,0.00,,,0.00,Rainwise IP-100,2013-05-23 23:58:00,
2013-05-23 20:03:00,76.6,65.5,29.21,West,270,1.0,4.0,68,0.00,,,0.00,Rainwise IP-100,2013-05-24 00:03:00,
2013-05-23 20:08:00,76.3,64.5,29.21,WSW,247,1.0,3.0,67,0.00,,,0.00,Rainwise IP-100,2013-05-24 00:08:00,
2013-05-23 20:13:00,76.1,64.5,29.21,West,270,1.0,2.0,68,0.00,,,0.00,Rainwise IP-100,2013-05-24 00:13:00,
2013-05-23 20:18:00,75.5,65.0,29.20,SW,225,1.0,2.0,70,0.00,,,0.00,Rainwise IP-100,2013-05-24 00:18:00,
2013-05-23 20:23:00,75.1,65.0,29.20,SW,225,2.0,2.0,71,0.00,,,0.00,Rainwise IP-100,2013-05-24 00:23:00,
2013-05-23 20:28:00,74.7,65.5,29.19,SW,225,2.0,2.0,72,0.00,,,0.00,Rainwise IP-100,2013-05-24 00:28:00,
2013-05-23 20:33:00,74.5,65.0,29.19,SW,225,1.0,2.0,71,0.00,,,0.00,Rainwise IP-100,2013-05-24 00:33:00,
2013-05-23 20:38:00,74.2,65.0,29.19,SW,225,1.0,2.0,72,0.00,,,0.00,Rainwise IP-100,2013-05-24 00:38:00,
2013-05-23 20:43:00,73.9,65.0,29.18,SW,225,1.0,1.0,73,0.00,,,0.00,Rainwise IP-100,2013-05-24 00:43:00,
2013-05-23 20:48:00,73.7,65.5,29.18,SW,225,1.0,1.0,75,0.00,,,0.00,Rainwise IP-100,2013-05-24 00:48:00,
2013-05-23 20:53:00,73.4,65.0,29.18,SW,225,0.0,1.0,75,0.00,,,0.00,Rainwise IP-100,2013-05-24 00:53:00,
2013-05-23 20:58:00,73.1,65.0,29.17,SW,225,0.0,1.0,76,0.00,,,0.00,Rainwise IP-100,2013-05-24 00:58:00,
2013-05-23 21:03:00,72.9,65.5,29.17,SW,225,0.0,0.0,77,0.00,,,0.00,Rainwise IP-100,2013-05-24 01:03:00,
2013-05-23 21:08:00,72.7,65.5,29.17,ESE,112,1.0,2.0,78,0.00,,,0.00,Rainwise IP-100,2013-05-24 01:08:00,
2013-05-23 21:13:00,72.6,66.0,29.17,ESE,112,0.0,2.0,79,0.00,,,0.00,Rainwise IP-100,2013-05-24 01:13:00,
2013-05-23 21:18:00,72.5,65.5,29.17,ESE,112,0.0,1.0,78,0.00,,,0.00,Rainwise IP-100,2013-05-24 01:18:00,
2013-05-23 21:23:00,72.4,65.5,29.17,ESE,112,0.0,0.0,79,0.00,,,0.00,Rainwise IP-100,2013-05-24 01:23:00,
2013-05-23 21:28:00,72.3,66.0,29.17,ESE,112,0.0,0.0,80,0.00,,,0.00,Rainwise IP-100,2013-05-24 01:28:00,
2013-05-23 21:34:00,72.2,66.0,29.17,ESE,112,0.0,2.0,80,0.00,,,0.00,Rainwise IP-100,2013-05-24 01:34:00,
2013-05-23 21:39:00,71.8,66.0,29.17,ESE,112,0.0,0.0,82,0.00,,,0.00,Rainwise IP-100,2013-05-24 01:39:00,
2013-05-23 21:44:00,71.6,66.3,29.17,ESE,112,0.0,2.0,83,0.00,,,0.00,Rainwise IP-100,2013-05-24 01:44:00,
2013-05-23 21:49:00,71.7,66.0,29.17,ESE,112,0.0,1.0,82,0.00,,,0.00,Rainwise IP-100,2013-05-24 01:49:00,
2013-05-23 21:54:00,71.7,66.7,29.17,ESE,112,0.0,2.0,84,0.00,,,0.00,Rainwise IP-100,2013-05-24 01:54:00,
2013-05-23 21:59:00,71.9,66.7,29.17,SSE,157,0.0,2.0,83,0.00,,,0.00,Rainwise IP-100,2013-05-24 01:59:00,
2013-05-23 22:04:00,71.9,66.0,29.17,SE,135,2.0,2.0,81,0.00,,,0.00,Rainwise IP-100,2013-05-24 02:04:00,
2013-05-23 22:09:00,71.9,66.3,29.17,SE,135,0.0,2.0,82,0.00,,,0.00,Rainwise IP-100,2013-05-24 02:09:00,
2013-05-23 22:14:00,71.3,66.3,29.17,East,90,0.0,2.0,84,0.00,,,0.00,Rainwise IP-100,2013-05-24 02:14:00,
2013-05-23 22:19:00,70.9,66.3,29.17,East,90,0.0,1.0,86,0.00,,,0.00,Rainwise IP-100,2013-05-24 02:19:00,
2013-05-23 22:24:00,70.7,66.3,29.16,East,90,0.0,0.0,87,0.00,,,0.00,Rainwise IP-100,2013-05-24 02:24:00,
2013-05-23 22:29:00,70.6,66.3,29.16,East,90,0.0,1.0,87,0.00,,,0.00,Rainwise IP-100,2013-05-24 02:29:00,
2013-05-23 22:34:00,70.2,66.3,29.16,East,90,0.0,2.0,88,0.00,,,0.00,Rainwise IP-100,2013-05-24 02:34:00,
2013-05-23 22:39:00,69.8,66.3,29.16,East,90,0.0,2.0,89,0.00,,,0.00,Rainwise IP-100,2013-05-24 02:39:00,
2013-05-23 22:44:00,69.5,66.7,29.15,East,90,0.0,2.0,91,0.00,,,0.00,Rainwise IP-100,2013-05-24 02:44:00,
2013-05-23 22:49:00,69.4,66.7,29.15,East,90,0.0,0.0,91,0.00,,,0.00,Rainwise IP-100,2013-05-24 02:49:00,
2013-05-23 22:54:00,69.3,66.7,29.15,East,90,0.0,0.0,91,0.00,,,0.00,Rainwise IP-100,2013-05-24 02:54:00,
2013-05-23 22:59:00,69.3,66.7,29.15,North,360,0.0,2.0,92,0.00,,,0.00,Rainwise IP-100,2013-05-24 02:59:00,
2013-05-23 23:04:00,69.3,66.7,29.15,North,360,1.0,2.0,91,0.00,,,0.00,Rainwise IP-100,2013-05-24 03:04:00,
2013-05-23 23:09:00,69.3,66.7,29.15,West,270,0.0,2.0,91,0.00,,,0.00,Rainwise IP-100,2013-05-24 03:09:00,
2013-05-23 23:14:00,69.4,66.3,29.15,West,270,2.0,2.0,90,0.00,,,0.00,Rainwise IP-100,2013-05-24 03:14:00,
2013-05-23 23:19:00,69.4,66.3,29.15,West,270,1.0,2.0,90,0.00,,,0.00,Rainwise IP-100,2013-05-24 03:19:00,
2013-05-23 23:24:00,69.9,65.5,29.15,SW,225,1.0,3.0,85,0.00,,,0.00,Rainwise IP-100,2013-05-24 03:24:00,
2013-05-23 23:29:00,70.6,65.0,29.15,WSW,247,2.0,4.0,83,0.00,,,0.00,Rainwise IP-100,2013-05-24 03:29:00,
2013-05-23 23:34:00,70.8,66.0,29.15,WSW,247,1.0,2.0,84,0.00,,,0.00,Rainwise IP-100,2013-05-24 03:34:00,
2013-05-23 23:39:00,70.8,65.0,29.15,West,270,3.0,6.0,82,0.00,,,0.00,Rainwise IP-100,2013-05-24 03:39:00,
2013-05-23 23:44:00,70.9,65.0,29.16,West,270,1.0,4.0,82,0.00,,,0.00,Rainwise IP-100,2013-05-24 03:44:00,
2013-05-23 23:49:00,70.9,65.0,29.16,WNW,292,2.0,3.0,82,0.00,,,0.00,Rainwise IP-100,2013-05-24 03:49:00,
2013-05-23 23:54:00,70.7,65.0,29.16,West,270,1.0,4.0,83,0.00,,,0.00,Rainwise IP-100,2013-05-24 03:54:00,
2013-05-23 23:59:00,70.4,65.0,29.17,NW,315,2.0,2.0,83,0.00,,,0.00,Rainwise IP-100,2013-05-24 03:59:00,